User: anonymous   Login
Location: Unspecified
(0.0000°N, 0.0000°E)
Time: 18:01:16
(UTC+00:00)
Language:

STARLINK-3295 - Orbit

View from above orbital plane
View from above orbital plane
View from above satellite
View from above satellite

Ground track
Ground track

The orbit is defined by the following mean orbital elements,

1 50840U          26145.51820785 +.00000000 +00000-0 +13062-4 0 00000
2 50840  53.2115 194.2219 0001118  86.7998 273.3122 15.08840726    03
Epoch (UTC): 25 May 2026 12:26:13
Eccentricity: 0.0001118
inclination: 53.2115°
perigee height: 539 km
apogee height: 541 km
right ascension of ascending node: 194.2219°
argument of perigee: 86.7998°
revolutions per day: 15.08840726
mean anomaly at epoch: 273.3122°

The dashed part of the orbit path shows where the satellite is in the earth's shadow,  

DLR